Regional Weather Roundup
Issued by NWS

Home | Current Version | Previous Version | Text Only | Print | Product List | Glossary On
Versions: 1 2 3 4 5 6 7 8 9 10 11 12 13 14 15 16 17 18 19 20 21 22 23 24 25 26 27 28 29 30 31 32 33 34 35 36 37 38 39 40 41 42 43 44 45 46 47 48 49 50
000
ASCA42 TJSJ 040210
RWRPR
PUERTO RICO/U.S. VIRGIN ISLANDS HOURLY WEATHER ROUNDUP
NATIONAL WEATHER SERVICE SAN JUAN PR
1000 PM AST THU SEP 03 2015

PRZ001-004-040300-
PUERTO RICO

CITY           SKY/WX    TMP DP  RH WIND       PRES   REMARKS
SAN JUAN LMM   PTCLDY    82  73  74 CALM      29.99R
PONCE          PTCLDY    82  75  78 NE6       29.93R
CEIBA          CLEAR     79  75  89 CALM      30.01R
$$

PRZ006-007-040300-
U.S. VIRGIN ISLANDS

CITY           SKY/WX    TMP DP  RH WIND       PRES   REMARKS
CHARLOTTE AMA  CLEAR     84  73  70 NE6       29.98R HX  91
CHRISTIANSTED  CLEAR     79  73  83 N3        29.99R
$$

HOURLY WEATHER ROUNDUP FOR THE NEWS MEDIA

CITY           SKY/WX    TMP DP  RH WIND       PRES   REMARKS
ORLANDO        PTCLDY    84  73  69 NW7       29.94R HX  90
NEW YORK       MOCLDY    78  71  79 CALM      29.90R
NEWARK         MOCLDY    83  68  60 SW6       29.88R
CHICAGO        PTCLDY    73  67  81 NE8       29.93S
HARTFORD       CLOUDY    71  70  96 CALM      29.89R
BOSTON         CLOUDY    73  68  84 NE5       29.91R
DALLAS         MOCLDY    87  65  47 SE9       29.86R
PHILADELPHIA   MOCLDY    83  69  62 S7        29.89R
LOS ANGELES    PTCLDY    70  57  63 W9        29.83S
WASHINGTON DC  CLOUDY    81  67  62 NW5       29.92R


USA.gov is the U.S. government's official web portal to all federal, state and local government web resources and services.